Probability
0 0 0 0 0 0 0 0 0 0 0 0 1 2 4 7 16 35 53 53 42 30 26 30 34 40 49 56 60 66 77 85 88 88 89 88 84 75 62 48 36 26 17 13
0 0 0 0 0 0 0 0 0 0 0 0 0 1 3 6 15 32 48 49 41 34 29 30 32 37 45 53 57 61 67 75 81 82 82 80 73 61 47 35 25 16 10 8
0 0 0 0 0 0 0 0 0 0 0 0 0 0 1 4 12 24 34 35 33 31 29 29 31 33 40 49 56 59 59 62 67 69 68 63 53 39 27 18 11 7 4 3
0 0 0 0 0 0 0 0 0 0 0 0 0 0 0 2 7 14 19 20 19 19 21 24 26 29 37 48 54 56 53 51 52 52 50 44 33 21 12 6 4 2 1 1
0 0 0 0 0 0 0 0 0 0 0 0 0 0 0 0 3 7 11 10 8 7 9 14 17 22 32 41 45 44 41 37 36 33 31 25 16 7 3 1 1 0 0 0
0 0 0 0 0 0 0 0 0 0 0 0 0 0 0 0 1 3 4 4 3 2 2 5 8 13 20 27 29 28 26 24 20 17 14 10 5 1 0 0 0 0 0 0
0 0 0 0 0 0 0 0 0 0 0 0 0 0 0 0 0 0 0 1 1 0 0 1 3 7 10 14 15 15 14 13 10 6 4 2 1 0 0 0 0 0 0 0
0 0 0 0 0 0 0 0 0 0 0 0 0 0 0 0 0 0 0 0 0 0 0 0 1 3 5 7 8 8 7 6 5 3 1 0 0 0 0 0 0 0 0 0
0 0 0 0 0 0 0 0 0 0 0 0 0 0 0 0 0 0 0 0 0 0 0 0 0 1 2 3 4 3 3 3 2 1 0 0 0 0 0 0 0 0 0 0
0 0 0 0 0 0 0 0 0 0 0 0 0 0 0 0 0 0 0 0 0 0 0 0 0 0 0 1 1 1 2 1 1 1 0 0 0 0 0 0 0 0 0 0
0 0 0 0 0 0 0 0 0 0 0 0 0 0 0 0 0 0 0 0 0 0 0 0 0 0 0 0 0 0 0 0 0 0 0 0 0 0 0 0 0 0 0 0
0 0 0 0 0 0 0 0 0 0 0 0 0 0 0 0 0 0 0 0 0 0 0 0 0 0 0 0 0 0 0 0 0 0 0 0 0 0 0 0 0 0 0 0
0 0 0 0 0 0 0 0 0 0 0 0 0 0 0 0 0 0 0 0 0 0 0 0 0 0 0 0 0 0 0 0 0 0 0 0 0 0 0 0 0 0 0 0
0 0 0 0 0 0 0 0 0 0 0 0 0 0 0 0 0 0 0 0 0 0 0 0 0 0 0 0 0 0 0 0 0 0 0 0 0 0 0 0 0 0 0 0
0 0 0 0 0 0 0 0 0 0 0 0 0 0 0 0 0 0 0 0 0 0 0 0 0 0 0 0 0 0 0 0 0 0 0 0 0 0 0 0 0 0 0 0
0 0 0 0 0 0 0 0 0 0 0 0 0 0 0 0 0 0 0 0 0 0 0 0 0 0 0 0 0 0 0 0 0 0 0 0 0 0 0 0 0 0 0 0
0 0 0 0 0 0 0 0 0 0 0 0 0 0 0 0 0 0 0 0 0 0 0 0 0 0 0 0 0 0 0 0 0 0 0 0 0 0 0 0 0 0 0 0
0 0 0 0 0 0 0 0 0 0 0 0 0 0 0 0 0 0 0 0 0 0 0 0 0 0 0 0 0 0 0 0 0 0 0 0 0 0 0 0 0 0 0 0
0 0 0 0 0 0 0 0 0 0 0 0 0 0 0 0 0 0 0 0 0 0 0 0 0 0 0 0 0 0 0 0 0 0 0 0 0 0 0 0 0 0 0 0
0 0 0 0 0 0 0 0 0 0 0 0 0 0 0 0 0 0 0 0 0 0 0 0 0 0 0 0 0 0 0 0 0 0 0 0 0 0 0 0 0 0 0 0
0 0 0 0 0 0 0 0 0 0 0 0 0 0 0 0 0 0 0 0 0 0 0 0 0 0 0 0 0 0 0 0 0 0 0 0 0 0 0 0 0 0 0 0
0 0 0 0 0 0 0 0 0 0 0 0 0 0 0 0 0 0 0 0 0 0 0 0 0 0 0 0 0 0 0 0 0 0 0 0 0 0 0 0 0 0 0 0
0 0 0 0 0 0 0 0 0 0 0 0 0 0 0 0 0 0 0 0 0 0 0 0 0 0 0 0 0 0 0 0 0 0 0 0 0 0 0 0 0 0 0 0
0 0 0 0 0 0 0 0 0 0 0 0 0 0 0 0 0 0 0 0 0 0 0 0 0 0 0 0 0 0 0 0 0 0 0 0 0 0 0 0 0 0 0 0
0 0 0 0 0 0 0 0 0 0 0 0 0 0 0 0 0 0 0 0 0 0 0 0 0 0 0 0 0 0 0 0 0 0 0 0 0 0 0 0 0 0 0 0
0 0 0 0 0 0 0 0 0 0 0 0 0 0 0 0 0 0 0 0 0 0 0 0 0 0 0 0 0 0 0 0 0 0 0 0 0 0 0 0 0 0 0 0
Wind_Speed
3 4 2 6 6 5 2 2 5 6 4 3 4 5 8 5 1 3 3 4 5 6 2 1 0 1 2 3 4 5 6 6 5 4 5 4 3 2 2 2 2 2 2 1
5 3 7 5 3 3 2 2 4 5 5 3 3 4 6 7 5 2 1 2 3 4 4 4 3 3 1 1 1 1 3 3 5 4 4 3 3 2 2 2 1 1 1 1
0 4 5 2 2 1 1 1 3 3 4 5 5 7 7 7 9 10 8 4 2 2 2 2 2 2 2 1 0 2 2 3 3 3 1 2 2 1 2 1 0 1 2 2
2 3 4 4 3 2 2 3 2 1 3 4 4 3 5 6 8 11 10 8 6 5 4 3 2 2 1 0 2 4 4 3 3 3 2 3 3 3 3 2 1 1 1 2
3 3 3 2 2 1 1 2 3 2 1 1 4 0 5 5 6 8 9 8 7 6 5 4 3 2 1 1 2 4 5 5 4 4 5 5 3 2 2 2 2 1 0 1
4 3 2 2 1 2 1 5 5 5 5 1 1 1 5 1 2 4 5 6 6 6 5 4 4 2 2 1 0 1 2 2 3 5 4 3 4 4 4 3 2 1 0 1
5 5 4 1 2 5 6 6 5 6 5 5 3 2 7 3 2 2 4 4 4 4 4 4 4 4 3 2 2 2 2 1 1 3 4 5 4 4 4 4 3 2 1 1
1 5 4 2 1 2 2 6 6 3 4 5 5 5 5 3 3 4 4 4 4 4 4 4 4 4 4 3 3 3 3 2 3 3 4 3 4 3 2 3 2 2 1 1
5 5 2 4 3 5 4 2 4 6 1 3 6 6 6 2 4 6 6 6 7 7 6 6 5 5 5 4 4 3 2 2 4 5 5 4 4 4 3 3 2 2 1 1
7 4 2 1 3 6 3 6 5 4 1 4 7 5 5 6 8 8 7 8 9 8 7 7 6 5 5 4 4 2 0 1 2 4 4 4 4 4 4 3 3 2 2 2
4 4 3 3 1 0 3 4 5 4 4 4 5 9 8 8 8 8 9 9 9 9 8 7 6 4 4 3 3 2 0 1 1 2 3 5 4 4 4 3 3 2 2 3
3 5 2 4 3 1 3 5 7 4 4 4 3 11 7 7 7 7 9 9 8 8 7 6 5 4 3 2 2 1 0 1 1 1 2 3 4 4 4 3 3 3 4 4
6 6 2 7 6 1 2 3 3 5 4 5 5 11 5 3 6 7 8 9 8 7 7 5 3 2 2 0 1 2 1 1 0 1 2 3 3 4 3 3 3 4 5 5
7 5 7 8 8 6 4 5 5 6 5 6 10 13 13 10 9 9 8 8 7 7 5 3 1 0 1 1 2 2 2 1 0 1 2 3 3 3 3 4 4 5 5 6
5 4 6 7 6 4 7 8 8 9 10 11 11 11 15 11 8 7 6 6 6 6 4 3 2 1 1 1 1 1 1 1 0 1 2 2 3 4 4 5 5 5 5 6
3 4 4 4 6 6 6 9 9 9 8 9 9 13 13 7 5 6 7 7 7 6 5 4 4 4 4 3 3 2 2 1 0 1 2 2 3 4 4 5 5 6 5 5
3 5 4 5 3 2 8 11 9 7 8 10 12 14 6 5 8 9 8 8 8 8 6 6 6 6 5 5 4 4 2 1 1 2 2 3 4 4 4 5 6 6 5 4
7 6 4 2 1 7 12 5 6 7 9 10 9 7 7 10 7 6 7 8 9 8 7 6 6 6 5 4 3 3 2 1 2 2 3 4 4 5 5 5 5 4 4 4
5 7 4 4 4 9 9 7 7 7 9 8 9 9 6 2 2 6 8 9 10 8 7 6 6 6 5 5 4 3 2 1 2 3 3 4 5 5 5 5 5 4 4 4
4 4 4 4 4 8 12 7 2 4 7 7 8 9 5 5 1 9 7 7 9 7 6 5 5 5 5 5 4 4 3 2 3 3 4 4 5 5 5 5 4 4 4 5
3 1 3 5 7 11 10 4 4 4 10 5 7 9 8 10 12 7 2 4 6 6 6 6 6 6 5 5 5 5 4 4 3 4 4 4 4 5 5 5 4 6 6 6
3 3 4 4 4 11 5 4 7 10 5 4 7 9 10 12 11 7 5 6 6 6 6 7 6 6 5 5 6 5 4 3 4 5 5 5 4 4 5 5 5 6 7 7
6 8 6 9 11 9 5 7 8 5 6 7 8 10 10 10 10 9 7 8 8 8 7 7 7 6 5 5 6 6 5 5 6 6 5 5 5 4 5 5 6 5 5 5
6 4 4 7 10 11 11 9 9 9 10 11 10 10 9 11 12 10 8 8 8 8 8 7 7 7 7 6 7 6 6 7 7 7 6 5 5 4 4 4 5 5 5 5
8 4 5 9 11 9 10 10 11 12 10 10 10 9 10 11 12 11 9 10 10 9 8 8 8 9 9 7 7 7 7 8 7 7 6 5 5 5 5 4 3 4 4 5
6 7 6 10 12 9 11 11 10 10 11 12 11 11 10 11 14 12 11 11 11 11 9 8 9 9 8 8 8 8 8 9 9 7 6 5 4 4 5 5 4 5 3 6
Wind_Direction
54 56 289 250 211 209 235 283 293 281 298 342 338 335 342 351 257 231 215 214 227 236 275 349 300 222 199 209 211 205 199 193 175 172 173 172 183 178 175 179 193 192 192 188
36 321 269 258 205 198 235 285 295 303 340 23 354 356 3 24 15 2 350 315 310 329 342 336 343 342 313 254 232 194 201 195 190 189 177 167 156 161 145 129 115 62 54 31
229 270 311 11 49 63 350 209 272 292 339 19 19 358 11 15 24 29 24 5 336 291 282 302 331 322 324 334 266 170 186 189 196 186 148 116 116 118 131 152 161 337 1 15
313 296 357 28 36 52 331 300 276 308 33 336 24 318 335 351 16 17 8 358 344 343 334 323 338 323 297 178 153 156 156 154 155 155 174 201 201 189 181 174 180 260 332 0
301 310 350 350 321 347 269 23 44 34 113 5 12 292 294 353 11 1 354 352 349 352 346 346 352 353 30 82 142 159 158 155 152 159 173 197 203 190 147 137 171 207 306 19
262 287 259 256 18 31 63 62 49 42 62 357 300 266 277 329 342 330 338 343 345 346 347 347 351 3 16 33 32 197 178 163 161 149 148 167 166 153 144 157 181 192 237 41
329 331 330 309 42 21 56 67 20 358 7 263 286 254 242 207 217 262 280 293 311 319 325 332 337 336 330 346 344 290 247 205 156 134 131 140 146 155 164 174 176 166 136 61
288 304 315 345 149 146 85 127 149 222 243 282 312 257 251 210 221 240 250 260 275 282 289 294 299 306 305 305 303 280 244 202 149 137 134 142 141 148 158 163 159 152 136 119
193 255 315 19 36 120 126 123 154 138 203 280 283 295 298 223 245 244 250 258 263 265 266 270 281 287 288 291 289 277 241 199 159 149 148 153 151 148 148 147 139 133 133 128
168 221 291 282 68 38 86 137 97 114 202 281 292 281 254 236 243 247 249 254 260 264 265 265 265 270 281 288 292 297 252 182 167 162 162 159 159 152 147 143 131 119 105 74
151 172 293 10 46 20 99 93 103 113 155 179 273 273 233 226 233 240 252 256 263 270 269 266 265 259 261 275 284 286 174 126 166 177 164 153 157 154 144 132 112 96 72 52
122 125 235 285 288 278 193 171 149 156 220 190 213 268 260 240 250 248 260 270 273 277 276 267 265 263 252 262 290 294 323 133 164 169 162 157 153 145 130 108 86 76 65 55
138 116 49 339 338 333 118 149 150 131 131 170 194 262 283 271 277 262 261 273 280 287 290 279 269 264 249 236 345 340 7 30 94 139 161 152 145 136 122 104 89 78 75 67
117 131 169 208 226 211 215 191 164 146 173 215 224 252 282 281 275 276 268 271 281 283 283 279 273 210 120 89 62 342 335 347 104 149 174 168 158 142 126 111 97 90 87 77
120 181 218 232 235 209 225 226 192 196 204 211 237 241 258 261 256 259 262 273 279 275 266 242 202 183 154 146 146 259 281 323 41 153 173 173 150 135 123 114 105 97 87 81
127 196 211 261 252 233 253 253 233 222 220 226 247 261 254 252 245 253 255 256 258 256 246 227 200 186 185 192 197 221 256 287 258 158 155 143 135 130 124 120 113 103 93 81
177 163 169 256 281 328 267 243 226 216 213 201 223 244 257 238 236 237 240 238 241 245 235 218 205 197 196 195 193 211 228 252 170 136 128 129 130 125 122 119 114 112 106 93
163 148 163 219 147 229 242 239 202 216 240 221 232 246 227 225 237 240 228 226 238 239 231 219 202 195 197 196 199 211 216 205 169 147 130 123 124 120 115 114 116 114 108 101
154 143 145 158 218 264 286 260 202 205 259 233 222 241 242 223 343 287 240 218 226 227 221 214 198 186 187 197 201 197 201 188 169 157 142 136 136 131 129 129 129 122 116 102
78 111 139 166 211 249 248 252 179 140 269 248 209 230 213 135 240 268 260 223 226 219 206 198 180 169 185 203 185 179 194 194 190 173 155 147 145 141 140 137 128 118 118 110
9 32 195 211 230 260 257 254 128 187 244 254 211 221 192 192 219 232 233 226 216 201 195 182 171 178 196 188 171 182 193 205 195 157 143 142 142 141 137 128 122 125 119 110
230 243 236 202 221 260 266 157 190 223 242 255 232 224 213 224 240 243 238 234 210 193 186 176 176 193 198 179 173 186 199 194 156 142 136 136 137 140 137 128 123 125 124 118
216 204 206 201 223 243 250 225 238 236 248 252 241 237 224 231 241 238 229 221 208 197 189 180 181 192 197 188 181 188 190 160 146 139 139 137 131 127 136 139 136 132 131 130
267 218 219 262 267 262 262 260 261 251 242 251 248 243 227 227 235 230 220 210 204 200 191 182 178 191 203 198 194 191 170 158 149 147 144 140 137 134 138 143 148 147 149 144
240 242 239 257 267 279 276 261 256 261 258 257 257 244 230 228 236 225 215 208 204 200 192 182 188 198 205 195 194 185 169 159 155 153 150 145 143 144 140 133 140 155 160 164
224 214 230 257 260 254 260 258 262 265 265 260 257 259 245 224 232 224 215 209 201 198 189 189 198 203 202 191 193 185 176 168 161 160 159 155 149 146 142 133 103 67 119 156